Location: Bergnerzell
(49.1816°N, 10.2565°E)
Time: 15:37:03
(UTC+00:00)

Meteor 1-24 Rocket - Pass Details

Date: 08 August 2024
Orbit: 790 x 926 km, 81.3° (Epoch: 08 September)

Event Time Altitude Azimuth Distance (km) Brightness Sun altitude
Rises 01:40:56 0° 353° (N) 3,473 7.7 -18.1°
Reaches altitude 10° 01:43:33 10° 2° (N) 2,552 7.0 -17.9°
Maximum altitude 01:48:55 37° 69° (ENE) 1,380 5.3 -17.4°
Drops below altitude 10° 01:54:23 10° 135° (SE) 2,604 6.2 -16.9°
Sets 01:57:04 0° 144° (SE) 3,552 6.8 -16.6°
